Terminal Aerodrome Forecast
Issued by NWS

Home | Current Version | Previous Version | Text Only | Print | Product List | Glossary On
Versions: 1 2 3 4 5 6 7 8 9 10 11 12 13 14 15 16 17 18 19 20 21 22 23 24 25 26 27 28 29 30 31 32 33 34 35 36 37 38 39 40 41 42 43 44 45 46 47 48 49 50
000
FTAK31 PANC 291611 AAC
TAFASD
TAF AMD
PASD 291611Z 2916/3012 14010KT 3SM -RA BR SCT002 BKN009
      TEMPO 2916/2920 2SM -RA BR SCT002 BKN006
     FM300200 15006KT 4SM -RA BR SCT004 OVC009
      AMD LTD TO CLD VIS AND WIND=

USA.gov is the U.S. government's official web portal to all federal, state and local government web resources and services.